Погода в Гандурине

Россия / Астраханская область     45°51′28″N   48°00′02″E
темп.,
°C
ветер,
м/с
пор.,
м/с
влажн.,
%
обл.,
%
осадки,
мм/ч
давл.,
гПа
погр.,
м
25 мая, ср
ср2501:00+14ссз23455 0.0 101257
04:00+13ссз344855 0.0 101370
07:00+15зсз2447100 0.0 1015210
10:00+19зсз563527 0.0 10161705
13:00+21сз563043 0.0 10161910
16:00+22сз463084 0.0 10162179
19:00+20зсз773956 0.0 10171363
22:00+17зсз365090 0.0 1019276
26 мая, чт
чт2601:00+16з475412 0.0 1019231
04:00+14зсз47595 0.0 1019184
07:00+16з475647 0.0 1020268
10:00+20з563827 0.0 10202102
13:00+20зсз573945 0.0 10201714
16:00+21з573966 0.0 10191959
19:00+19з244653 0.1 1020968
22:00+18зюз234965 0.0 102063
27 мая, пт
пт2701:00+17юз345914 0.0 101987
04:00+17ююз466581 0.0 1018162
07:00+19юз4561100 0.0 1018320
10:00+22юз673897 0.0 10181649
13:00+22юз6845100 0.0 10171679
16:00+21зсз464781 0.1 1017713
19:00+20ююз6760100 0.1 1016461
22:00+20юз57606 0.5 1017218
28 мая, сб
сб2801:00+17з356172 0.1 101784
04:00+16зсз366716 0.1 1017133
07:00+19зсз34630 0.0 1018248
10:00+23зюз34470 0.0 10181301
13:00+24ююз544514 0.0 10171531
16:00+23ю64510 0.0 1017730
19:00+22ю56600 0.0 1018377
22:00+20ю47710 0.0 1019193
29 мая, вс
вс2901:00+19ю46744 0.0 1018145
04:00+18ююв46750 0.0 1018121
07:00+20юв47650 0.0 1019306
10:00+23юв68510 0.0 1019694
13:00+24юв79500 0.0 1019794
16:00+24юв78470 0.0 1018719
19:00+23в674978 0.0 1018445
22:00+20в486736 0.0 1019166